This demonstration page uses our WeatherBlox Daily Observations layout. Learn more.

Left ArrowRight Arrow

53.62937, 11.41316

Hourly Observations for September 30, 2021

Temp ( °F °C ) Dew Point ( °F °C ) Humidity (%) Winds ( mph kmh ) Pressure ( in mb ) Visibility ( mi km ) Precip ( " mm )
6:20 am 06:20 Partly Cloudy 50 10 48 9 94 94 SSW 18 30 29.97 1015 30 48 N/A
6:50 am 06:50 Mostly Cloudy 52 11 46 8 82 82 SSW 16 26 30.00 1016 30 48 N/A
7:20 am 07:20 Partly Cloudy 52 11 46 8 82 82 SSW 17 28 30.00 1016 30 48 N/A
7:50 am 07:50 Mostly Sunny 52 11 46 8 82 82 SSW 17 28 30.00 1016 30 48 N/A
8:20 am 08:20 Mostly Sunny 50 10 46 8 88 88 SSW 17 28 30.03 1017 30 48 N/A
8:50 am 08:50 Mostly Sunny 52 11 46 8 82 82 SSW 16 26 30.03 1017 30 48 N/A
9:20 am 09:20 Mostly Sunny 52 11 45 7 77 77 SSW 18 30 30.03 1017 30 48 N/A
10:20 am 10:20 Mostly Sunny 54 12 46 8 77 77 SSW 20 31 30.06 1018 30 48 N/A
10:50 am 10:50 Mostly Sunny 54 12 46 8 77 77 SSW 17 28 30.09 1019 30 48 N/A
11:20 am 11:20 Mostly Sunny 54 12 46 8 77 77 SSW 20 31 30.09 1019 30 48 N/A
11:50 am 11:50 Partly Cloudy 54 12 48 9 82 82 SSW 16 26 30.09 1019 30 48 N/A
12:20 pm 12:20 Mostly Sunny 57 14 46 8 67 67 SSW 22 35 30.09 1019 30 48 N/A
12:50 pm 12:50 Partly Cloudy 55 13 46 8 72 72 SW 21 33 30.12 1020 30 48 N/A
1:20 pm 13:20 Partly Cloudy 59 15 48 9 68 68 SSW 22 35 30.12 1020 30 48 N/A
1:50 pm 13:50 Partly Cloudy 59 15 46 8 63 63 SW 20 31 30.12 1020 30 48 N/A
2:20 pm 14:20 Mostly Sunny 59 15 48 9 68 68 SW 21 33 30.12 1020 30 48 N/A
2:50 pm 14:50 Partly Cloudy 59 15 46 8 63 63 SSW 18 30 30.15 1021 30 48 N/A
3:20 pm 15:20 Partly Cloudy 61 16 45 7 55 55 SSW 24 39 30.15 1021 30 48 N/A
3:50 pm 15:50 Partly Cloudy 59 15 43 6 55 55 SW 16 26 30.15 1021 30 48 N/A
4:20 pm 16:20 Partly Cloudy 59 15 45 7 59 59 SSW 15 24 30.15 1021 30 48 N/A
4:50 pm 16:50 Mostly Sunny 57 14 43 6 59 59 SSW 15 24 30.15 1021 30 48 N/A
5:20 pm 17:20 Partly Cloudy with Showers Nearby 57 14 45 7 63 63 S 8 13 30.15 1021 30 48 N/A
5:50 pm 17:50 Partly Cloudy 54 12 45 7 72 72 SW 7 11 30.15 1021 30 48 N/A
6:20 pm 18:20 Partly Cloudy 54 12 46 8 77 77 SSE 3 6 30.15 1021 30 48 N/A
6:50 pm 18:50 Mostly Sunny 54 12 46 8 77 77 SSE 2 4 30.15 1021 30 48 N/A
7:20 pm 19:20 Mostly Clear 55 13 43 6 63 63 S 8 13 30.15 1021 7 11 N/A
7:50 pm 19:50 Mostly Clear 54 12 43 6 67 67 S 8 13 30.15 1021 7 11 N/A
8:20 pm 20:20 Mostly Clear 54 12 43 6 67 67 S 8 13 30.15 1021 7 11 N/A
8:50 pm 20:50 Mostly Clear 54 12 43 6 67 67 S 7 11 30.15 1021 7 11 N/A
9:20 pm 21:20 Mostly Clear 54 12 43 6 67 67 S 7 11 30.15 1021 7 11 N/A
9:50 pm 21:50 Mostly Clear 54 12 43 6 67 67 S 8 13 30.18 1022 7 11 N/A

Powered by AerisWeather